STARLINK-35373

Last updated on Mon Oct 20 2025 00:02:07 GMT+0000 (Coordinated Universal Time)

1 65792U 25218B 25292.26639297 .00056959 00000+0 10408-2 0 9999 2 65792 97.6023 152.8352 0001641 95.5221 264.6216 15.49206312 3643
UTC large
Height (km)
Speed (km/s)
/
Latitude / Longitude
Inclination (degrees)
Orbital Period (minutes)
Azimuth
Elevation
Range (km)
Doppler Factor

Next 0 passes for location: London (51.5072 / 0.1276)

Sorry there are no passes over London.